����,���ϕ���(m/s),���ϕ���,�ő�u�ԕ���(m/s),�ő啗��������,�C��(��),���x(%),10���Ԉړ��ώZ�J��(mm),1���Ԉړ��ώZ�J��(mm),���J��(mm),�݌v�J��(mm),����(���ώZ)(MJ/m2),����(���ώZ)(min),���n�C��(hPa),�C�ʋC��(hPa)
2021-10-18T00:00:00+09:00,1.7,�k��,3,�k�k��,11.2,81.2,0,0,7,11.5,10.78,224,1009,1023.1
2021-10-18T00:01:00+09:00,1.8,�k��,3,�k�k��,11.1,80.8,0,0,0,11.5,0,0,1009,1023.1
2021-10-18T00:02:00+09:00,1.8,�k��,3,�k�k��,11.1,80.9,0,0,0,11.5,0,0,1009,1023.1
2021-10-18T00:03:00+09:00,1.8,�k��,3,�k��,10.9,81.1,0,0,0,11.5,0,0,1009,1023.1
2021-10-18T00:04:00+09:00,1.9,�k��,3,�k��,10.9,81.2,0,0,0,11.5,0,0,1009,1023.1
2021-10-18T00:05:00+09:00,2,�k��,3,�k��,11,81.9,0,0,0,11.5,0,0,1009,1023.1
2021-10-18T00:06:00+09:00,2.1,�k��,3,�k��,11.2,82.4,0,0,0,11.5,0,0,1009,1023.1
2021-10-18T00:07:00+09:00,2.1,�k��,3,�k��,11.1,81.8,0,0,0,11.5,0,0,1009,1023.1
2021-10-18T00:08:00+09:00,2.2,�k��,3,�k��,11.1,81.4,0,0,0,11.5,0,0,1008.9,1023
2021-10-18T00:09:00+09:00,2.3,�k��,3,�k��,11,81.2,0,0,0,11.5,0,0,1009,1023.1
2021-10-18T00:10:00+09:00,2.3,�k��,3.3,�k��,11,81.5,0,0,0,11.5,0,0,1009,1023.1
2021-10-18T00:11:00+09:00,2.4,�k��,3.4,�k��,11,81.9,0,0,0,11.5,0,0,1009,1023.1
2021-10-18T00:12:00+09:00,2.4,�k��,3.5,�k��,10.9,81.6,0,0,0,11.5,0,0,1009,1023.1
2021-10-18T00:13:00+09:00,2.5,�k��,3.5,�k��,11.2,82.4,0,0,0,11.5,0,0,1008.9,1023
2021-10-18T00:14:00+09:00,2.5,�k��,3.9,�k��,11.1,82.5,0,0,0,11.5,0,0,1008.9,1023
2021-10-18T00:15:00+09:00,2.6,�k��,3.9,�k��,11.1,81.5,0,0,0,11.5,0,0,1009,1023.1
2021-10-18T00:16:00+09:00,2.6,�k��,4.1,�k��,11.2,82,0,0,0,11.5,0,0,1009,1023.1
2021-10-18T00:17:00+09:00,2.6,�k��,4.1,�k��,11.1,81.8,0,0,0,11.5,0,0,1009,1023.1
2021-10-18T00:18:00+09:00,2.7,�k��,4.1,�k��,11.2,81.7,0,0,0,11.5,0,0,1009,1023.1
2021-10-18T00:19:00+09:00,2.7,�k��,4.1,�k��,11,81.4,0,0,0,11.5,0,0,1009,1023.1
2021-10-18T00:20:00+09:00,2.7,�k��,4.1,�k��,11.1,81.5,0,0,0,11.5,0,0,1009,1023.1
2021-10-18T00:21:00+09:00,2.7,�k��,4.1,�k��,11.1,81.9,0,0,0,11.5,0,0,1009,1023.1
2021-10-18T00:22:00+09:00,2.8,�k��,4.1,�k��,11.2,82.2,0,0,0,11.5,0,0,1009,1023.1
2021-10-18T00:23:00+09:00,2.7,�k��,4.1,�k��,11.1,82.3,0,0,0,11.5,0,0,1009,1023.1
2021-10-18T00:24:00+09:00,2.7,�k��,4.1,�k��,11,81.6,0,0,0,11.5,0,0,1009,1023.1
2021-10-18T00:25:00+09:00,2.6,�k��,4.1,�k��,11,81.7,0,0,0,11.5,0,0,1009,1023.1
2021-10-18T00:26:00+09:00,2.5,�k��,4.1,�k��,11,81.9,0,0,0,11.5,0,0,1009,1023.1
2021-10-18T00:27:00+09:00,2.4,�k��,4.1,�k��,10.8,81.6,0,0,0,11.5,0,0,1009.1,1023.3
2021-10-18T00:28:00+09:00,2.4,�k��,4.1,�k��,10.8,82,0,0,0,11.5,0,0,1009.1,1023.3
2021-10-18T00:29:00+09:00,2.3,�k��,4.1,�k��,11,82.9,0,0,0,11.5,0,0,1009.1,1023.2
2021-10-18T00:30:00+09:00,2.3,�k��,4.1,�k��,11,83.1,0,0,0,11.5,0,0,1009.1,1023.2
2021-10-18T00:31:00+09:00,2.3,�k��,3.8,�k��,10.9,82.7,0,0,0,11.5,0,0,1009.1,1023.2
2021-10-18T00:32:00+09:00,2.3,�k��,3.8,�k��,10.9,82.3,0,0,0,11.5,0,0,1009.1,1023.2
2021-10-18T00:33:00+09:00,2.2,�k��,3.8,�k��,10.9,82.3,0,0,0,11.5,0,0,1009.1,1023.2
2021-10-18T00:34:00+09:00,2.2,�k��,3.8,�k��,10.9,82.6,0,0,0,11.5,0,0,1009.1,1023.2
2021-10-18T00:35:00+09:00,2.1,�k��,3.7,�k��,10.9,82.4,0,0,0,11.5,0,0,1009.1,1023.2
2021-10-18T00:36:00+09:00,2.2,�k��,3.7,�k��,10.9,82.5,0,0,0,11.5,0,0,1009.1,1023.2
2021-10-18T00:37:00+09:00,2.3,�k��,3.7,�k��,10.7,82,0,0,0,11.5,0,0,1009.1,1023.3
2021-10-18T00:38:00+09:00,2.3,�k��,3.7,�k��,10.8,82.1,0,0,0,11.5,0,0,1009.1,1023.3
2021-10-18T00:39:00+09:00,2.3,�k��,3.7,�k��,10.8,82.8,0,0,0,11.5,0,0,1009.1,1023.3
2021-10-18T00:40:00+09:00,2.4,�k��,3.7,�k��,10.8,82.4,0,0,0,11.5,0,0,1009.1,1023.3
2021-10-18T00:41:00+09:00,2.4,�k��,3.8,�k��,10.8,82.4,0,0,0,11.5,0,0,1009.1,1023.3
2021-10-18T00:42:00+09:00,2.4,�k��,3.8,�k��,11,82.9,0,0,0,11.5,0,0,1009.1,1023.2
2021-10-18T00:43:00+09:00,2.4,�k��,3.8,�k��,10.9,82.6,0,0,0,11.5,0,0,1009.1,1023.2
2021-10-18T00:44:00+09:00,2.4,�k��,3.8,�k��,11,82.6,0,0,0,11.5,0,0,1009.1,1023.2
2021-10-18T00:45:00+09:00,2.5,�k��,3.8,�k��,10.9,82.4,0,0,0,11.5,0,0,1009.1,1023.2
2021-10-18T00:46:00+09:00,2.5,�k��,3.8,�k��,11,81.9,0,0,0,11.5,0,0,1009.1,1023.2
2021-10-18T00:47:00+09:00,2.4,�k��,3.8,�k��,11.3,82.4,0,0,0,11.5,0,0,1009,1023.1
2021-10-18T00:48:00+09:00,2.4,�k��,3.8,�k��,11.3,82.1,0,0,0,11.5,0,0,1009.1,1023.2
2021-10-18T00:49:00+09:00,2.5,�k��,3.8,�k��,11.4,81.6,0,0,0,11.5,0,0,1009.1,1023.2
2021-10-18T00:50:00+09:00,2.5,�k��,3.8,�k��,11.1,80.5,0,0,0,11.5,0,0,1009.1,1023.2
2021-10-18T00:51:00+09:00,2.5,�k��,3.6,�k��,11.1,79.9,0,0,0,11.5,0,0,1009.1,1023.2
2021-10-18T00:52:00+09:00,2.5,�k��,3.6,�k��,11,80.4,0,0,0,11.5,0,0,1009,1023.1
2021-10-18T00:53:00+09:00,2.6,�k��,3.6,�k��,11,80.4,0,0,0,11.5,0,0,1009,1023.1
2021-10-18T00:54:00+09:00,2.6,�k�k��,4.1,�k�k��,11,80.8,0,0,0,11.5,0,0,1009,1023.1
2021-10-18T00:55:00+09:00,2.7,�k�k��,4.1,�k�k��,11.3,81.4,0,0,0,11.5,0,0,1009.1,1023.2
2021-10-18T00:56:00+09:00,2.7,�k�k��,4.1,�k�k��,11.2,81.1,0,0,0,11.5,0,0,1009.1,1023.2
2021-10-18T00:57:00+09:00,2.7,�k�k��,4.1,�k�k��,11.1,80.7,0,0,0,11.5,0,0,1009.1,1023.2
2021-10-18T00:58:00+09:00,2.6,�k�k��,4.1,�k�k��,11.2,80.9,0,0,0,11.5,0,0,1009.1,1023.2
2021-10-18T00:59:00+09:00,2.5,�k�k��,4.1,�k�k��,11,80.6,0,0,0,11.5,0,0,1009.1,1023.2
2021-10-18T01:00:00+09:00,2.4,�k��,4.1,�k�k��,10.7,80,0,0,0,11.5,0,0,1009.1,1023.3
2021-10-18T01:01:00+09:00,2.3,�k��,4.1,�k�k��,10.9,81.4,0,0,0,11.5,0,0,1009.1,1023.2
2021-10-18T01:02:00+09:00,2.3,�k��,4.1,�k�k��,10.7,81.5,0,0,0,11.5,0,0,1009.1,1023.3
2021-10-18T01:03:00+09:00,2.2,�k��,4.1,�k�k��,10.8,82,0,0,0,11.5,0,0,1009.1,1023.3
2021-10-18T01:04:00+09:00,2.2,�k��,3.8,�k�k��,10.8,82.3,0,0,0,11.5,0,0,1009.1,1023.3
2021-10-18T01:05:00+09:00,2.1,�k��,3.5,�k��,10.8,82.4,0,0,0,11.5,0,0,1009.1,1023.3
2021-10-18T01:06:00+09:00,2.1,�k��,3.5,�k��,10.7,82.3,0,0,0,11.5,0,0,1009.1,1023.3
2021-10-18T01:07:00+09:00,2,�k��,3.5,�k��,10.7,82.5,0,0,0,11.5,0,0,1009.1,1023.3
2021-10-18T01:08:00+09:00,1.9,�k��,3.5,�k��,10.6,82.5,0,0,0,11.5,0,0,1009.1,1023.3
2021-10-18T01:09:00+09:00,1.9,�k��,3.5,�k��,10.6,83,0,0,0,11.5,0,0,1009.1,1023.3
2021-10-18T01:10:00+09:00,1.9,�k��,3.5,�k��,10.4,82.5,0,0,0,11.5,0,0,1009.1,1023.3
2021-10-18T01:11:00+09:00,1.9,�k��,3.5,�k��,10.5,83.4,0,0,0,11.5,0,0,1009.1,1023.3
2021-10-18T01:12:00+09:00,1.9,�k��,3.5,�k��,10.6,83.6,0,0,0,11.5,0,0,1009,1023.2
2021-10-18T01:13:00+09:00,1.8,�k��,3.5,�k��,10.5,83.9,0,0,0,11.5,0,0,1009.1,1023.3
2021-10-18T01:14:00+09:00,1.9,�k��,3.5,�k��,10.5,83.3,0,0,0,11.5,0,0,1009.1,1023.3
2021-10-18T01:15:00+09:00,1.9,�k��,3.8,�k��,10.6,83.6,0,0,0,11.5,0,0,1009.1,1023.3
2021-10-18T01:16:00+09:00,2,�k��,3.8,�k��,10.6,83.8,0,0,0,11.5,0,0,1009.1,1023.3
2021-10-18T01:17:00+09:00,2.2,�k��,3.8,�k��,10.8,84.1,0,0,0,11.5,0,0,1009.1,1023.3
2021-10-18T01:18:00+09:00,2.4,�k��,3.8,�k��,10.7,83.4,0,0,0,11.5,0,0,1009.1,1023.3
2021-10-18T01:19:00+09:00,2.5,�k��,4.3,�k��,10.7,82.8,0,0,0,11.5,0,0,1009.2,1023.4
2021-10-18T01:20:00+09:00,2.6,�k��,4.3,�k��,11,83.9,0,0,0,11.5,0,0,1009.2,1023.3
2021-10-18T01:21:00+09:00,2.7,�k��,4.3,�k��,11,82.8,0,0,0,11.5,0,0,1009.1,1023.2
2021-10-18T01:22:00+09:00,2.7,�k��,4.3,�k��,11,82.7,0,0,0,11.5,0,0,1009.2,1023.3
2021-10-18T01:23:00+09:00,2.8,�k��,4.3,�k��,10.9,81.8,0,0,0,11.5,0,0,1009.2,1023.3
2021-10-18T01:24:00+09:00,2.7,�k��,4.3,�k��,11.1,81.9,0,0,0,11.5,0,0,1009.1,1023.2
2021-10-18T01:25:00+09:00,2.7,�k�k��,4.3,�k��,10.9,81.2,0,0,0,11.5,0,0,1009.1,1023.2
2021-10-18T01:26:00+09:00,2.6,�k�k��,4.3,�k��,10.8,80.9,0,0,0,11.5,0,0,1009.1,1023.3
2021-10-18T01:27:00+09:00,2.5,�k�k��,4.3,�k��,10.8,81.5,0,0,0,11.5,0,0,1009.1,1023.3
2021-10-18T01:28:00+09:00,2.4,�k�k��,4.3,�k��,10.9,82.3,0,0,0,11.5,0,0,1009.1,1023.2
2021-10-18T01:29:00+09:00,2.3,�k�k��,4.1,�k�k��,10.9,82,0,0,0,11.5,0,0,1009.2,1023.3
2021-10-18T01:30:00+09:00,2.3,�k�k��,3.7,�k�k��,10.7,81.9,0,0,0,11.5,0,0,1009.2,1023.4
2021-10-18T01:31:00+09:00,2.3,�k�k��,3.7,�k�k��,10.7,81.9,0,0,0,11.5,0,0,1009.2,1023.4
2021-10-18T01:32:00+09:00,2.3,�k��,3.6,�k��,10.5,82.2,0,0,0,11.5,0,0,1009.2,1023.4
2021-10-18T01:33:00+09:00,2.3,�k��,3.6,�k��,10.6,82.9,0,0,0,11.5,0,0,1009.2,1023.4
2021-10-18T01:34:00+09:00,2.3,�k��,3.6,�k��,10.4,83.1,0,0,0,11.5,0,0,1009.1,1023.3
2021-10-18T01:35:00+09:00,2.3,�k��,3.6,�k��,10.6,83.7,0,0,0,11.5,0,0,1009.2,1023.4
2021-10-18T01:36:00+09:00,2.3,�k��,3.6,�k��,10.7,84.5,0,0,0,11.5,0,0,1009.2,1023.4
2021-10-18T01:37:00+09:00,2.4,�k��,3.6,�k��,10.5,83.4,0,0,0,11.5,0,0,1009.1,1023.3
2021-10-18T01:38:00+09:00,2.3,�k��,3.6,�k��,10.5,83.7,0,0,0,11.5,0,0,1009.1,1023.3
2021-10-18T01:39:00+09:00,2.3,�k��,3.6,�k��,10.4,83.9,0,0,0,11.5,0,0,1009.1,1023.3
2021-10-18T01:40:00+09:00,2.2,�k��,3.6,�k��,10.5,84.2,0,0,0,11.5,0,0,1009.1,1023.3
2021-10-18T01:41:00+09:00,2.1,�k��,3.6,�k��,10.5,84.7,0,0,0,11.5,0,0,1009.1,1023.3
2021-10-18T01:42:00+09:00,2,�k��,3,�k�k��,10.7,84.9,0,0,0,11.5,0,0,1009.1,1023.3
2021-10-18T01:43:00+09:00,1.9,�k��,3,�k�k��,10.6,84.5,0,0,0,11.5,0,0,1009.1,1023.3
2021-10-18T01:44:00+09:00,1.8,�k��,2.9,�k��,10.5,84.1,0,0,0,11.5,0,0,1009.1,1023.3
2021-10-18T01:45:00+09:00,1.8,�k��,2.9,�k��,10.6,84.4,0,0,0,11.5,0,0,1009,1023.2
2021-10-18T01:46:00+09:00,1.7,�k��,2.8,�k�k��,10.5,84.3,0,0,0,11.5,0,0,1009,1023.2
2021-10-18T01:47:00+09:00,1.8,�k��,3.3,�k��,10.8,85,0,0,0,11.5,0,0,1009,1023.2
2021-10-18T01:48:00+09:00,1.9,�k��,3.7,�k��,10.6,84.8,0,0,0,11.5,0,0,1009,1023.2
2021-10-18T01:49:00+09:00,2,�k��,3.9,�k��,10.7,84.3,0,0,0,11.5,0,0,1009,1023.2
2021-10-18T01:50:00+09:00,2.1,�k��,3.9,�k��,10.8,84.6,0,0,0,11.5,0,0,1009,1023.2
2021-10-18T01:51:00+09:00,2.2,�k��,3.9,�k��,10.9,84.1,0,0,0,11.5,0,0,1009,1023.1
2021-10-18T01:52:00+09:00,2.2,�k��,3.9,�k��,10.8,83.6,0,0,0,11.5,0,0,1009,1023.2
2021-10-18T01:53:00+09:00,2.2,�k��,3.9,�k��,10.8,83.1,0,0,0,11.5,0,0,1009,1023.2
2021-10-18T01:54:00+09:00,2.2,�k��,3.9,�k��,10.9,83.2,0,0,0,11.5,0,0,1009,1023.1
2021-10-18T01:55:00+09:00,2.2,�k��,3.9,�k��,10.7,82.8,0,0,0,11.5,0,0,1009.1,1023.3
2021-10-18T01:56:00+09:00,2.1,�k��,3.9,�k��,10.7,82.8,0,0,0,11.5,0,0,1009,1023.2
2021-10-18T01:57:00+09:00,1.9,�k��,3.9,�k��,10.6,82.9,0,0,0,11.5,0,0,1009.1,1023.3
2021-10-18T01:58:00+09:00,1.7,�k��,3.9,�k��,10.4,82.9,0,0,0,11.5,0,0,1009,1023.2
2021-10-18T01:59:00+09:00,1.5,�k�k��,3.2,�k��,10.3,83,0,0,0,11.5,0,0,1009,1023.2
2021-10-18T02:00:00+09:00,1.4,�k�k��,3.2,�k��,10.6,84.3,0,0,0,11.5,0,0,1009,1023.2
2021-10-18T02:01:00+09:00,1.4,�k�k��,2.7,�k��,10.6,85,0,0,0,11.5,0,0,1009.1,1023.3
2021-10-18T02:02:00+09:00,1.4,�k�k��,3.2,�k��,10.5,84.7,0,0,0,11.5,0,0,1009.1,1023.3
2021-10-18T02:03:00+09:00,1.4,�k�k��,3.2,�k��,10.5,84.7,0,0,0,11.5,0,0,1009.1,1023.3
2021-10-18T02:04:00+09:00,1.5,�k��,3.2,�k��,10.4,84.3,0,0,0,11.5,0,0,1009.1,1023.3
2021-10-18T02:05:00+09:00,1.5,�k��,3.2,�k��,10.4,84.4,0,0,0,11.5,0,0,1009.1,1023.3
2021-10-18T02:06:00+09:00,1.5,�k��,3.2,�k��,10.5,85,0,0,0,11.5,0,0,1009.1,1023.3
2021-10-18T02:07:00+09:00,1.6,�k��,3.2,�k��,10.3,84.7,0,0,0,11.5,0,0,1009.1,1023.3
2021-10-18T02:08:00+09:00,1.5,�k��,3.2,�k��,10.2,84.3,0,0,0,11.5,0,0,1009.1,1023.3
2021-10-18T02:09:00+09:00,1.5,�k��,3.2,�k��,10.3,85,0,0,0,11.5,0,0,1009.1,1023.3
2021-10-18T02:10:00+09:00,1.4,�k��,3.2,�k��,10.1,85.6,0,0,0,11.5,0,0,1009.1,1023.3
2021-10-18T02:11:00+09:00,1.3,�k��,3.2,�k��,10.2,85.7,0,0,0,11.5,0,0,1009.1,1023.3
2021-10-18T02:12:00+09:00,1.2,�k��,2.8,�k��,10.2,86.3,0,0,0,11.5,0,0,1009.1,1023.3
2021-10-18T02:13:00+09:00,1.1,�k��,2.7,�k�k��,10.2,86.3,0,0,0,11.5,0,0,1009.1,1023.3
2021-10-18T02:14:00+09:00,1.1,�k��,2.4,�k�k��,10.2,86.5,0,0,0,11.5,0,0,1009.1,1023.3
2021-10-18T02:15:00+09:00,1.1,�k��,2.4,�k�k��,10.3,86.5,0,0,0,11.5,0,0,1009.1,1023.3
2021-10-18T02:16:00+09:00,1,�k��,2.2,�k��,10.2,86.3,0,0,0,11.5,0,0,1009.1,1023.3
2021-10-18T02:17:00+09:00,1,�k�k��,2.2,�k��,10.3,86.3,0,0,0,11.5,0,0,1009.1,1023.3
2021-10-18T02:18:00+09:00,0.9,�k�k��,2.2,�k��,10.3,86.4,0,0,0,11.5,0,0,1009.1,1023.3
2021-10-18T02:19:00+09:00,0.9,�k�k��,2.2,�k��,10.2,85.9,0,0,0,11.5,0,0,1009,1023.2
2021-10-18T02:20:00+09:00,0.9,�k�k��,2.2,�k��,10.3,86.1,0,0,0,11.5,0,0,1009,1023.2
2021-10-18T02:21:00+09:00,0.8,�k�k��,2.2,�k��,10.3,86.2,0,0,0,11.5,0,0,1009,1023.2
2021-10-18T02:22:00+09:00,0.7,�k�k��,2.1,�k�k��,10.3,86.1,0,0,0,11.5,0,0,1009,1023.2
2021-10-18T02:23:00+09:00,0.6,�k�k��,1.9,�k�k��,10.3,86,0,0,0,11.5,0,0,1009,1023.2
2021-10-18T02:24:00+09:00,0.5,�k,1.6,�k�k��,10.3,85.8,0,0,0,11.5,0,0,1009.1,1023.3
2021-10-18T02:25:00+09:00,0.4,�k,1.3,���k��,10.4,86.1,0,0,0,11.5,0,0,1009.1,1023.3
2021-10-18T02:26:00+09:00,0.4,�k,1.5,�k��,10.5,86.4,0,0,0,11.5,0,0,1009.1,1023.3
2021-10-18T02:27:00+09:00,0.5,�k,1.9,�k�k��,10.5,86.4,0,0,0,11.5,0,0,1009.1,1023.3
2021-10-18T02:28:00+09:00,0.6,�k,1.9,�k�k��,10.4,85.7,0,0,0,11.5,0,0,1009.1,1023.3
2021-10-18T02:29:00+09:00,0.6,�k,1.9,�k�k��,10.3,85.6,0,0,0,11.5,0,0,1009.1,1023.3
2021-10-18T02:30:00+09:00,0.6,�k,1.9,�k�k��,10.5,85.8,0,0,0,11.5,0,0,1009,1023.2
2021-10-18T02:31:00+09:00,0.6,�k�k��,1.9,�k�k��,10.4,85.7,0,0,0,11.5,0,0,1009.1,1023.3
2021-10-18T02:32:00+09:00,0.6,�k,1.9,�k�k��,10.6,86.2,0,0,0,11.5,0,0,1009,1023.2
2021-10-18T02:33:00+09:00,0.6,�k,1.9,�k�k��,10.4,86.2,0,0,0,11.5,0,0,1009,1023.2
2021-10-18T02:34:00+09:00,0.7,�k�k��,1.9,�k�k��,10.3,85.4,0,0,0,11.5,0,0,1009,1023.2
2021-10-18T02:35:00+09:00,0.8,�k�k��,2,�k�k��,10.4,85.6,0,0,0,11.5,0,0,1008.9,1023.1
2021-10-18T02:36:00+09:00,0.8,�k��,2.3,�k��,10.3,85.6,0,0,0,11.5,0,0,1008.9,1023.1
2021-10-18T02:37:00+09:00,0.9,�k��,2.6,�k��,10.4,86.3,0,0,0,11.5,0,0,1008.9,1023.1
2021-10-18T02:38:00+09:00,1.1,�k��,3.1,�k��,10.5,86.6,0,0,0,11.5,0,0,1009,1023.2
2021-10-18T02:39:00+09:00,1.1,�k��,3.1,�k��,10.6,86.7,0,0,0,11.5,0,0,1009,1023.2
2021-10-18T02:40:00+09:00,1.3,�k��,3.1,�k��,10.8,86.7,0,0,0,11.5,0,0,1009,1023.2
2021-10-18T02:41:00+09:00,1.4,�k��,3.1,�k��,10.8,86.1,0,0,0,11.5,0,0,1009,1023.2
2021-10-18T02:42:00+09:00,1.6,�k��,3.4,�k��,11.1,86.2,0,0,0,11.5,0,0,1009,1023.1
2021-10-18T02:43:00+09:00,1.8,�k��,3.4,�k��,11.2,85.6,0,0,0,11.5,0,0,1009,1023.1
2021-10-18T02:44:00+09:00,1.9,�k��,3.4,�k��,10.9,84.4,0,0,0,11.5,0,0,1009,1023.1
2021-10-18T02:45:00+09:00,2.1,�k��,3.7,�k��,10.9,83.8,0,0,0,11.5,0,0,1008.9,1023
2021-10-18T02:46:00+09:00,2.2,�k��,3.7,�k��,11,84.1,0,0,0,11.5,0,0,1008.9,1023
2021-10-18T02:47:00+09:00,2.2,�k�k��,3.7,�k��,11,84.1,0,0,0,11.5,0,0,1008.9,1023
2021-10-18T02:48:00+09:00,2.2,�k�k��,3.7,�k��,10.9,83.3,0,0,0,11.5,0,0,1008.9,1023
2021-10-18T02:49:00+09:00,2.3,�k�k��,3.7,�k��,11,83.7,0,0,0,11.5,0,0,1008.9,1023
2021-10-18T02:50:00+09:00,2.3,�k�k��,3.7,�k��,11,84,0,0,0,11.5,0,0,1008.9,1023
2021-10-18T02:51:00+09:00,2.4,�k��,3.7,�k��,10.9,83.7,0,0,0,11.5,0,0,1008.9,1023
2021-10-18T02:52:00+09:00,2.4,�k��,3.7,�k��,11.1,83.7,0,0,0,11.5,0,0,1008.9,1023
2021-10-18T02:53:00+09:00,2.4,�k��,3.7,�k��,10.9,83.8,0,0,0,11.5,0,0,1008.9,1023
2021-10-18T02:54:00+09:00,2.4,�k��,3.7,�k��,10.9,83.8,0,0,0,11.5,0,0,1008.9,1023
2021-10-18T02:55:00+09:00,2.3,�k��,3.6,�k��,10.8,83.1,0,0,0,11.5,0,0,1008.9,1023
2021-10-18T02:56:00+09:00,2.3,�k��,3.6,�k��,10.9,83.6,0,0,0,11.5,0,0,1008.9,1023
2021-10-18T02:57:00+09:00,2.3,�k��,3.6,�k��,10.8,83.7,0,0,0,11.5,0,0,1009,1023.2
2021-10-18T02:58:00+09:00,2.4,�k��,3.6,�k��,11.1,84.3,0,0,0,11.5,0,0,1009,1023.1
2021-10-18T02:59:00+09:00,2.3,�k��,3.6,�k��,10.9,83.7,0,0,0,11.5,0,0,1009,1023.1
2021-10-18T03:00:00+09:00,2.2,�k��,3.6,�k��,10.9,83.2,0,0,0,11.5,0,0,1009,1023.1
2021-10-18T03:01:00+09:00,2.1,�k��,3.3,�k��,11.1,83.6,0,0,0,11.5,0,0,1008.9,1023
2021-10-18T03:02:00+09:00,2.1,�k��,3.3,�k��,11,83.6,0,0,0,11.5,0,0,1009,1023.1
2021-10-18T03:03:00+09:00,2,�k��,3.3,�k��,10.8,82.8,0,0,0,11.5,0,0,1008.9,1023
2021-10-18T03:04:00+09:00,1.9,�k��,3.3,�k��,10.8,82.9,0,0,0,11.5,0,0,1008.9,1023
2021-10-18T03:05:00+09:00,1.9,�k��,3.3,�k��,10.8,83.6,0,0,0,11.5,0,0,1008.9,1023
2021-10-18T03:06:00+09:00,1.8,�k��,3.3,�k��,10.8,83.9,0,0,0,11.5,0,0,1008.9,1023
2021-10-18T03:07:00+09:00,1.8,�k��,3.3,�k��,10.8,84.3,0,0,0,11.5,0,0,1008.9,1023
2021-10-18T03:08:00+09:00,1.8,�k��,3.1,�k�k��,11.1,85.1,0,0,0,11.5,0,0,1008.9,1023
2021-10-18T03:09:00+09:00,1.8,�k��,3.1,�k�k��,10.9,84.2,0,0,0,11.5,0,0,1008.8,1022.9
2021-10-18T03:10:00+09:00,1.8,�k��,3.1,�k�k��,10.9,83.8,0,0,0,11.5,0,0,1008.8,1022.9
2021-10-18T03:11:00+09:00,1.9,�k��,3.1,�k�k��,11.1,84.3,0,0,0,11.5,0,0,1008.9,1023
2021-10-18T03:12:00+09:00,2,�k��,3.1,�k�k��,10.8,83.5,0,0,0,11.5,0,0,1008.8,1022.9
2021-10-18T03:13:00+09:00,2,�k��,3.1,�k�k��,11,83.8,0,0,0,11.5,0,0,1008.8,1022.9
2021-10-18T03:14:00+09:00,2.1,�k��,3.1,�k�k��,11,84,0,0,0,11.5,0,0,1008.8,1022.9
2021-10-18T03:15:00+09:00,2.1,�k��,3.1,�k�k��,10.9,83.5,0,0,0,11.5,0,0,1008.8,1022.9
2021-10-18T03:16:00+09:00,2.1,�k��,3.1,�k�k��,10.8,83.2,0,0,0,11.5,0,0,1008.8,1022.9
2021-10-18T03:17:00+09:00,2.1,�k��,3.4,�k�k��,10.9,83.5,0,0,0,11.5,0,0,1008.8,1022.9
2021-10-18T03:18:00+09:00,2.1,�k��,3.4,�k�k��,10.8,83.3,0,0,0,11.5,0,0,1008.8,1022.9
2021-10-18T03:19:00+09:00,2.2,�k��,3.4,�k�k��,10.8,83.2,0,0,0,11.5,0,0,1008.8,1022.9
2021-10-18T03:20:00+09:00,2.1,�k��,3.4,�k�k��,10.7,82.9,0,0,0,11.5,0,0,1008.7,1022.9
2021-10-18T03:21:00+09:00,2.1,�k��,3.4,�k�k��,10.8,83.4,0,0,0,11.5,0,0,1008.8,1022.9
2021-10-18T03:22:00+09:00,2.1,�k��,3.4,�k�k��,10.9,83.9,0,0,0,11.5,0,0,1008.7,1022.8
2021-10-18T03:23:00+09:00,2.1,�k��,3.4,�k�k��,10.8,83.3,0,0,0,11.5,0,0,1008.7,1022.8
2021-10-18T03:24:00+09:00,2.1,�k��,3.4,�k�k��,10.8,83,0,0,0,11.5,0,0,1008.7,1022.8
2021-10-18T03:25:00+09:00,2.2,�k��,3.4,�k�k��,11.1,83.1,0,0,0,11.5,0,0,1008.7,1022.8
2021-10-18T03:26:00+09:00,2.3,�k��,3.4,�k�k��,11.1,83.3,0,0,0,11.5,0,0,1008.8,1022.9
2021-10-18T03:27:00+09:00,2.2,�k��,3.1,�k�k��,10.9,82.2,0,0,0,11.5,0,0,1008.8,1022.9
2021-10-18T03:28:00+09:00,2.2,�k��,3.1,�k�k��,10.8,81.7,0,0,0,11.5,0,0,1008.8,1022.9
2021-10-18T03:29:00+09:00,2.2,�k��,3.1,�k�k��,10.7,81.7,0,0,0,11.5,0,0,1008.8,1023
2021-10-18T03:30:00+09:00,2.2,�k��,3.1,�k�k��,10.8,82,0,0,0,11.5,0,0,1008.8,1022.9
2021-10-18T03:31:00+09:00,2.1,�k��,3.1,�k�k��,10.8,82.6,0,0,0,11.5,0,0,1008.8,1022.9
2021-10-18T03:32:00+09:00,2,�k��,3.1,�k�k��,10.9,82.2,0,0,0,11.5,0,0,1008.8,1022.9
2021-10-18T03:33:00+09:00,1.9,�k�k��,3.1,�k�k��,10.8,82.6,0,0,0,11.5,0,0,1008.8,1022.9
2021-10-18T03:34:00+09:00,1.9,�k�k��,3.1,�k�k��,10.7,82.4,0,0,0,11.5,0,0,1008.8,1023
2021-10-18T03:35:00+09:00,1.8,�k�k��,3.1,�k�k��,10.7,82.4,0,0,0,11.5,0,0,1008.8,1023
2021-10-18T03:36:00+09:00,1.9,�k�k��,3.1,�k��,10.6,82.5,0,0,0,11.5,0,0,1008.8,1023
2021-10-18T03:37:00+09:00,1.9,�k�k��,3.1,�k��,10.6,82.6,0,0,0,11.5,0,0,1008.8,1023
2021-10-18T03:38:00+09:00,1.9,�k�k��,3.1,�k��,10.5,82.5,0,0,0,11.5,0,0,1008.8,1023
2021-10-18T03:39:00+09:00,2,�k�k��,3.3,�k�k��,10.6,82.8,0,0,0,11.5,0,0,1008.8,1023
2021-10-18T03:40:00+09:00,2,�k�k��,3.3,�k�k��,10.6,83.3,0,0,0,11.5,0,0,1008.8,1023
2021-10-18T03:41:00+09:00,2.1,�k�k��,3.4,�k�k��,10.8,83.9,0,0,0,11.5,0,0,1008.8,1022.9
2021-10-18T03:42:00+09:00,2.2,�k�k��,3.4,�k�k��,10.7,83.1,0,0,0,11.5,0,0,1008.8,1023
2021-10-18T03:43:00+09:00,2.3,�k�k��,3.4,�k�k��,10.9,83.1,0,0,0,11.5,0,0,1008.8,1022.9
2021-10-18T03:44:00+09:00,2.3,�k�k��,3.4,�k�k��,10.8,82.2,0,0,0,11.5,0,0,1008.8,1022.9
2021-10-18T03:45:00+09:00,2.4,�k�k��,3.4,�k�k��,10.7,81.8,0,0,0,11.5,0,0,1008.9,1023.1
2021-10-18T03:46:00+09:00,2.3,�k�k��,3.4,�k�k��,10.8,82,0,0,0,11.5,0,0,1008.8,1022.9
2021-10-18T03:47:00+09:00,2.3,�k�k��,3.4,�k�k��,10.7,81.9,0,0,0,11.5,0,0,1008.8,1023
2021-10-18T03:48:00+09:00,2.3,�k�k��,3.4,�k�k��,10.5,81.6,0,0,0,11.5,0,0,1008.8,1023
2021-10-18T03:49:00+09:00,2.2,�k�k��,3.4,�k�k��,10.6,82.1,0,0,0,11.5,0,0,1008.8,1023
2021-10-18T03:50:00+09:00,2.2,�k�k��,3.4,�k�k��,10.6,82.1,0,0,0,11.5,0,0,1008.8,1023
2021-10-18T03:51:00+09:00,2.2,�k�k��,3.2,�k�k��,10.6,82.5,0,0,0,11.5,0,0,1008.8,1023
2021-10-18T03:52:00+09:00,2.2,�k�k��,3.3,�k,10.5,82.2,0,0,0,11.5,0,0,1008.8,1023
2021-10-18T03:53:00+09:00,2.2,�k�k��,3.9,�k�k��,10.5,82,0,0,0,11.5,0,0,1008.8,1023
2021-10-18T03:54:00+09:00,2.2,�k�k��,3.9,�k�k��,10.6,82.2,0,0,0,11.5,0,0,1008.8,1023
2021-10-18T03:55:00+09:00,2.1,�k�k��,3.9,�k�k��,10.6,82.1,0,0,0,11.5,0,0,1008.9,1023.1
2021-10-18T03:56:00+09:00,2.1,�k�k��,3.9,�k�k��,10.7,81.8,0,0,0,11.5,0,0,1008.8,1023
2021-10-18T03:57:00+09:00,2.1,�k�k��,3.9,�k�k��,10.7,81.6,0,0,0,11.5,0,0,1008.8,1023
2021-10-18T03:58:00+09:00,2.2,�k�k��,3.9,�k�k��,10.9,81.4,0,0,0,11.5,0,0,1008.8,1022.9
2021-10-18T03:59:00+09:00,2.3,�k�k��,3.9,�k�k��,10.9,80.5,0,0,0,11.5,0,0,1008.8,1022.9
2021-10-18T04:00:00+09:00,2.3,�k�k��,3.9,�k�k��,11.1,79.9,0,0,0,11.5,0,0,1008.8,1022.9
2021-10-18T04:01:00+09:00,2.3,�k�k��,3.9,�k�k��,11.2,79.2,0,0,0,11.5,0,0,1008.8,1022.9
2021-10-18T04:02:00+09:00,2.2,�k�k��,3.9,�k�k��,11,78,0,0,0,11.5,0,0,1008.8,1022.9
2021-10-18T04:03:00+09:00,2.1,�k�k��,3.4,�k�k��,10.8,77.6,0,0,0,11.5,0,0,1008.8,1022.9
2021-10-18T04:04:00+09:00,2,�k�k��,3.4,�k�k��,10.7,78,0,0,0,11.5,0,0,1008.8,1023
2021-10-18T04:05:00+09:00,2,�k�k��,3.4,�k�k��,10.6,78.6,0,0,0,11.5,0,0,1008.8,1023
2021-10-18T04:06:00+09:00,2.1,�k�k��,3.4,�k�k��,10.8,79.6,0,0,0,11.5,0,0,1008.8,1022.9
2021-10-18T04:07:00+09:00,2,�k�k��,3.4,�k�k��,11,81,0,0,0,11.5,0,0,1008.8,1022.9
2021-10-18T04:08:00+09:00,1.9,�k�k��,3.4,�k�k��,10.8,80.8,0,0,0,11.5,0,0,1008.8,1022.9
2021-10-18T04:09:00+09:00,1.9,�k�k��,2.9,�k,10.7,80.2,0,0,0,11.5,0,0,1008.8,1023
2021-10-18T04:10:00+09:00,1.9,�k�k��,3.5,�k��,10.6,80.3,0,0,0,11.5,0,0,1008.8,1023
2021-10-18T04:11:00+09:00,1.9,�k�k��,3.5,�k��,10.9,80.5,0,0,0,11.5,0,0,1008.8,1022.9
2021-10-18T04:12:00+09:00,1.9,�k�k��,3.5,�k��,10.8,79.5,0,0,0,11.5,0,0,1008.8,1022.9
2021-10-18T04:13:00+09:00,2,�k�k��,3.5,�k��,10.8,79,0,0,0,11.5,0,0,1008.8,1022.9
2021-10-18T04:14:00+09:00,2,�k�k��,3.5,�k��,10.8,79.4,0,0,0,11.5,0,0,1008.8,1022.9
2021-10-18T04:15:00+09:00,2.1,�k�k��,3.5,�k��,10.7,78.9,0,0,0,11.5,0,0,1008.8,1023
2021-10-18T04:16:00+09:00,2,�k�k��,3.5,�k��,10.7,79.1,0,0,0,11.5,0,0,1008.8,1023
2021-10-18T04:17:00+09:00,2.1,�k�k��,3.5,�k��,10.7,80,0,0,0,11.5,0,0,1008.8,1023
2021-10-18T04:18:00+09:00,2,�k�k��,3.5,�k��,10.6,79.9,0,0,0,11.5,0,0,1008.8,1023
2021-10-18T04:19:00+09:00,2,�k�k��,3.5,�k��,10.6,79.9,0,0,0,11.5,0,0,1008.8,1023
2021-10-18T04:20:00+09:00,1.9,�k�k��,3,�k�k��,10.6,80.2,0,0,0,11.5,0,0,1008.8,1023
2021-10-18T04:21:00+09:00,2,�k�k��,3,�k�k��,10.7,80.4,0,0,0,11.5,0,0,1008.8,1023
2021-10-18T04:22:00+09:00,2,�k�k��,3,�k�k��,10.6,80.3,0,0,0,11.5,0,0,1008.8,1023
2021-10-18T04:23:00+09:00,2,�k�k��,2.9,�k�k��,10.5,80.1,0,0,0,11.5,0,0,1008.8,1023
2021-10-18T04:24:00+09:00,2,�k�k��,2.9,�k�k��,10.4,79.7,0,0,0,11.5,0,0,1008.8,1023
2021-10-18T04:25:00+09:00,1.9,�k�k��,2.9,�k�k��,10.4,79.9,0,0,0,11.5,0,0,1008.8,1023
2021-10-18T04:26:00+09:00,1.9,�k�k��,2.9,�k�k��,10.4,80.5,0,0,0,11.5,0,0,1008.8,1023
2021-10-18T04:27:00+09:00,1.9,�k�k��,2.9,�k�k��,10.4,80.7,0,0,0,11.5,0,0,1008.8,1023
2021-10-18T04:28:00+09:00,1.9,�k�k��,2.9,�k�k��,10.5,81,0,0,0,11.5,0,0,1008.8,1023
2021-10-18T04:29:00+09:00,1.8,�k�k��,2.9,�k�k��,10.4,81.2,0,0,0,11.5,0,0,1008.9,1023.1
2021-10-18T04:30:00+09:00,1.7,�k�k��,2.9,�k�k��,10.4,80.7,0,0,0,11.5,0,0,1008.9,1023.1
2021-10-18T04:31:00+09:00,1.7,�k�k��,2.5,�k�k��,10.3,80.8,0,0,0,11.5,0,0,1008.9,1023.1
2021-10-18T04:32:00+09:00,1.7,�k�k��,2.5,�k�k��,10.4,81.2,0,0,0,11.5,0,0,1008.9,1023.1
2021-10-18T04:33:00+09:00,1.6,�k�k��,2.5,�k�k��,10.4,82,0,0,0,11.5,0,0,1008.9,1023.1
2021-10-18T04:34:00+09:00,1.6,�k��,2.4,�k��,10.3,81.2,0,0,0,11.5,0,0,1008.9,1023.1
2021-10-18T04:35:00+09:00,1.6,�k��,2.4,�k��,10.3,81,0,0,0,11.5,0,0,1009,1023.2
2021-10-18T04:36:00+09:00,1.7,�k��,2.9,�k�k��,10.4,81.3,0,0,0,11.5,0,0,1009,1023.2
2021-10-18T04:37:00+09:00,1.7,�k��,2.9,�k�k��,10.4,81.1,0,0,0,11.5,0,0,1008.9,1023.1
2021-10-18T04:38:00+09:00,1.7,�k��,2.9,�k�k��,10.3,80.8,0,0,0,11.5,0,0,1008.9,1023.1
2021-10-18T04:39:00+09:00,1.8,�k�k��,2.9,�k�k��,10.3,80.8,0,0,0,11.5,0,0,1008.9,1023.1
2021-10-18T04:40:00+09:00,1.8,�k�k��,2.9,�k�k��,10.4,81.5,0,0,0,11.5,0,0,1008.9,1023.1
2021-10-18T04:41:00+09:00,1.7,�k�k��,2.9,�k�k��,10.3,81,0,0,0,11.5,0,0,1008.9,1023.1
2021-10-18T04:42:00+09:00,1.7,�k�k��,2.9,�k�k��,10.3,80.9,0,0,0,11.5,0,0,1008.9,1023.1
2021-10-18T04:43:00+09:00,1.7,�k�k��,2.9,�k�k��,10.2,81,0,0,0,11.5,0,0,1008.9,1023.1
2021-10-18T04:44:00+09:00,1.8,�k�k��,3,�k��,10.1,80.5,0,0,0,11.5,0,0,1008.9,1023.1
2021-10-18T04:45:00+09:00,1.8,�k�k��,3,�k��,10.2,81.1,0,0,0,11.5,0,0,1009,1023.2
2021-10-18T04:46:00+09:00,1.8,�k�k��,3,�k��,10.2,81.2,0,0,0,11.5,0,0,1009,1023.2